Theta_e
346 345 345 344 344 344 344 336 329 333 336 336 331 327 329 331 333 335 337 338 338 337 336 335 334 333 333 334 335 337 340 341 341 341 341 342 342 342 341 340 339 337 336 334 336 337 337 336 334 333 333 332 332 334 334 335 335 333 333 334 334 335 335 334 334 334 334 332 332 333 333 332 331 329 327 327 325 325 326 325 325 326 327 328 329
344 344 344 342 343 343 341 333 332 337 338 336 330 328 331 334 335 337 338 339 338 338 338 338 338 338 337 336 337 339 342 342 342 342 342 342 341 340 338 337 337 337 335 333 336 337 336 335 334 334 335 335 335 336 335 335 336 335 333 334 334 334 334 335 334 334 332 331 332 333 332 330 329 329 329 328 326 326 327 327 326 327 328 328 327
343 344 343 342 343 342 337 331 335 338 337 334 329 330 333 336 337 338 339 339 340 340 340 340 340 341 341 339 339 341 341 342 342 341 341 340 339 337 334 334 335 335 333 333 336 336 335 335 336 336 336 336 337 336 335 334 334 334 334 335 335 335 335 334 333 333 332 331 332 332 330 328 329 329 329 327 327 328 328 328 327 326 327 327 327
343 343 342 343 342 340 335 333 338 337 333 330 329 333 336 337 337 337 338 339 341 340 340 341 341 342 342 341 341 342 341 342 341 340 340 338 336 332 330 331 333 334 334 335 336 336 336 336 336 336 336 336 336 334 333 333 333 334 335 334 334 333 332 331 331 332 332 331 330 328 326 328 330 330 329 328 328 329 328 328 328 326 326 326 326
343 343 343 343 341 337 334 336 338 335 330 331 333 335 337 337 336 336 337 340 341 341 341 341 342 341 342 342 342 342 341 342 341 340 338 335 332 330 330 332 333 335 337 337 336 337 336 336 337 337 336 335 334 334 333 333 333 333 331 329 328 327 327 328 328 330 330 330 328 325 326 329 330 329 329 328 328 328 328 327 327 325 324 324 325
343 343 343 343 340 335 334 338 337 332 333 335 336 336 337 337 336 335 336 340 340 341 342 342 342 342 342 342 341 342 341 341 342 339 333 333 333 332 332 331 332 335 338 337 336 336 335 336 337 336 336 335 334 334 333 332 332 331 329 327 326 325 324 324 325 328 329 329 328 327 327 328 328 329 329 327 327 328 327 325 324 323 324 324 323
343 344 344 342 338 334 336 338 335 333 336 338 337 337 337 337 335 335 337 340 340 342 342 342 342 342 342 342 342 341 340 340 339 334 330 333 333 332 332 331 331 334 337 337 336 335 335 337 337 337 337 335 335 335 333 332 332 331 330 329 326 324 322 322 324 328 329 328 328 328 327 326 328 330 329 328 327 328 327 324 323 324 324 324 323
343 344 344 341 336 334 338 338 335 335 338 339 338 337 337 336 335 336 339 340 341 342 342 341 341 342 342 342 342 341 340 339 336 333 332 334 334 332 330 331 332 334 337 337 335 335 336 337 337 337 337 336 335 335 334 333 333 333 332 329 325 323 323 323 326 328 329 329 329 329 327 327 329 329 329 328 328 328 327 325 324 323 323 324 324
343 343 342 341 337 337 339 337 335 337 338 338 339 338 338 336 335 337 339 340 341 342 342 341 340 341 341 340 341 341 340 339 337 336 336 335 334 334 330 329 332 335 336 336 335 335 336 337 337 337 336 336 336 335 335 334 333 332 332 329 325 323 324 324 326 329 329 330 330 328 328 329 329 328 328 327 327 327 326 325 325 324 323 324 324
342 342 342 340 338 339 339 335 335 338 338 338 339 337 336 335 335 338 339 340 341 342 342 341 341 341 340 339 340 341 341 339 338 338 338 337 334 332 330 327 332 336 336 335 335 336 336 337 337 336 336 336 335 333 333 334 333 332 331 329 326 325 325 324 325 329 330 330 329 327 326 327 327 327 327 326 327 327 326 325 325 325 325 324 322
341 341 341 340 339 339 337 335 336 338 338 339 338 336 335 334 335 338 339 339 340 341 340 341 341 341 339 339 340 341 340 339 339 339 338 338 334 330 327 324 331 336 335 335 335 336 336 336 336 336 335 335 333 331 330 332 332 333 332 329 327 326 326 325 325 328 330 329 327 325 325 326 327 328 327 327 327 327 326 326 325 326 326 324 321
341 340 340 340 339 337 335 335 337 338 338 338 336 335 334 334 334 337 340 339 339 340 340 340 340 341 340 339 340 340 340 339 339 339 338 338 333 327 325 321 327 335 335 335 335 336 336 336 336 335 333 332 331 329 329 330 331 332 332 330 328 327 326 326 326 327 329 327 326 325 325 326 327 328 327 327 327 326 326 325 325 325 325 324 322
340 340 341 340 338 336 335 336 338 338 338 337 335 334 334 333 334 336 339 339 339 339 339 340 340 341 340 340 340 339 339 339 339 338 338 338 331 324 324 321 322 331 335 335 335 335 336 336 334 333 332 330 329 328 329 329 330 332 332 331 329 328 327 326 326 327 328 325 326 327 326 326 326 327 328 328 327 326 326 325 324 324 324 323 322
340 341 341 339 338 336 335 337 338 338 337 335 333 333 333 333 333 335 336 337 338 339 339 339 339 340 339 340 340 340 340 339 339 338 338 337 331 324 324 323 320 326 332 333 334 335 335 334 332 331 330 328 327 328 328 329 329 331 331 331 330 329 327 325 326 327 326 325 326 328 328 328 329 329 329 328 328 327 327 325 323 323 324 323 322
340 340 340 339 337 335 335 337 338 338 336 333 332 331 332 332 332 332 333 334 335 336 337 338 338 338 338 339 339 339 339 339 339 338 338 336 330 325 324 324 320 321 330 333 333 334 333 332 331 330 328 326 326 327 327 328 328 330 331 330 330 328 326 324 325 325 325 325 327 328 328 328 329 329 329 328 327 327 326 326 324 322 322 322 322
340 339 339 338 337 336 336 337 337 337 335 332 330 330 331 331 331 331 332 332 333 333 334 336 336 337 337 338 339 338 339 338 338 337 338 335 329 325 324 325 322 319 325 332 332 332 331 330 330 328 326 326 326 327 327 328 329 330 330 330 329 327 325 323 324 325 325 326 328 329 328 328 328 328 328 328 326 325 326 325 324 323 322 321 322
340 339 339 338 338 338 337 337 337 337 334 332 331 333 334 333 333 333 334 334 333 333 332 333 334 335 336 337 337 337 338 337 337 337 337 335 329 325 325 325 325 319 318 327 330 329 330 329 329 326 325 327 326 327 328 329 330 330 330 329 328 326 324 323 323 325 327 327 328 329 328 328 328 328 328 327 324 325 326 323 322 323 323 321 321
340 339 339 338 338 338 338 338 337 336 335 335 336 338 337 336 336 336 336 334 332 331 331 331 333 336 337 337 337 336 337 336 336 337 336 335 330 326 325 325 326 323 316 321 329 329 329 328 327 325 325 326 327 327 329 330 330 329 329 328 327 325 324 323 324 326 328 328 329 329 328 329 328 328 328 325 323 325 326 323 321 323 323 322 321
339 338 338 338 339 339 339 338 335 335 337 337 339 338 338 338 337 338 336 331 326 326 329 331 332 335 338 337 336 336 336 336 336 336 336 335 331 327 325 325 326 325 318 317 327 328 327 328 326 325 325 326 327 327 328 329 329 329 328 327 327 325 324 324 325 326 328 328 328 328 328 328 327 327 327 325 323 324 325 323 322 322 322 321 322
338 338 338 338 339 340 339 336 334 336 338 339 339 338 339 338 338 338 334 327 324 323 326 332 333 334 337 337 336 337 336 335 335 335 336 334 332 328 325 325 325 325 320 315 322 327 326 327 326 325 325 326 327 327 327 328 328 328 327 327 326 324 324 324 325 326 327 327 327 328 328 328 327 327 327 325 323 324 324 323 322 322 321 321 321
338 338 339 339 339 340 337 335 335 338 339 339 338 339 339 339 339 338 332 327 327 325 324 329 332 335 337 338 337 337 335 334 334 335 336 334 332 328 324 325 324 323 320 315 319 325 326 326 326 325 324 326 328 327 327 327 327 327 327 326 325 324 324 324 325 325 326 327 327 328 328 327 327 326 326 325 324 324 324 323 322 322 321 321 321
339 339 340 339 340 339 337 336 338 339 339 339 339 339 339 339 338 336 331 328 329 327 325 325 330 335 338 338 337 336 334 333 334 335 336 335 333 329 325 325 324 321 319 316 316 322 326 325 326 325 324 326 328 328 327 327 326 326 326 325 324 324 324 324 324 325 325 327 327 328 327 327 327 326 326 326 325 325 325 324 322 321 321 321 320
340 341 340 339 340 339 337 337 339 339 338 339 339 339 339 338 338 336 331 329 329 328 326 326 329 333 336 337 337 335 333 332 333 334 335 334 334 330 326 326 326 321 317 316 316 320 325 325 325 325 324 326 329 329 328 328 327 326 326 325 325 324 324 323 324 325 325 327 327 327 327 326 326 326 325 325 325 325 325 323 322 322 322 321 321
338 340 340 340 340 338 337 336 338 338 338 338 338 339 338 338 338 336 333 330 328 327 327 326 327 330 333 336 336 335 334 332 332 334 334 334 335 331 326 327 327 323 318 315 315 319 325 326 325 325 324 326 329 329 329 328 327 327 326 325 325 324 324 323 323 324 325 326 326 327 327 326 326 326 325 325 324 325 324 323 323 323 322 322 321
336 339 340 340 339 339 337 336 338 338 337 337 338 338 337 337 337 336 335 331 327 328 330 329 330 331 331 333 333 334 332 332 332 333 334 334 335 331 325 326 326 324 320 315 315 320 325 326 325 325 324 325 328 330 330 329 328 327 326 325 325 324 324 323 323 324 324 325 326 327 327 326 326 326 325 324 324 324 324 323 322 322 322 321 321
337 339 339 340 340 339 338 337 338 337 337 336 337 338 336 337 337 336 336 333 328 329 334 335 335 335 334 334 333 332 330 331 333 334 334 333 332 328 324 326 326 326 323 317 314 319 326 326 325 325 324 325 328 331 332 331 330 327 327 326 325 324 324 324 324 324 324 325 327 327 326 326 325 325 324 324 324 323 323 323 323 323 322 322 322
333 337 339 340 340 339 337 336 336 337 337 336 336 337 336 335 336 336 336 334 330 328 333 337 338 337 337 336 336 335 332 330 332 334 333 332 330 326 324 326 327 327 325 321 316 319 325 325 324 324 324 326 329 331 332 333 332 330 327 326 325 324 324 324 324 324 324 324 326 327 326 326 325 324 325 324 324 324 323 323 323 323 322 322 322
329 335 339 340 340 338 335 335 334 334 336 336 335 335 335 335 336 336 335 334 332 328 331 336 338 338 338 338 338 338 335 333 332 332 331 330 329 327 325 326 329 329 326 323 319 320 324 325 324 324 325 328 330 332 333 333 333 332 330 327 325 325 325 325 325 325 324 324 325 326 325 326 326 324 325 325 324 324 323 323 324 323 322 323 323
328 333 340 340 341 338 333 332 331 331 333 335 335 334 335 335 335 335 334 334 334 331 332 335 338 338 338 338 338 338 337 336 334 332 329 328 328 327 325 326 330 331 329 325 322 322 324 324 324 324 327 330 332 332 333 333 333 332 332 329 326 325 326 326 326 326 325 324 324 325 325 325 325 324 325 325 325 324 323 323 324 323 322 323 323
328 332 339 340 341 340 334 330 330 330 331 334 336 335 335 335 335 334 334 334 334 334 334 336 337 337 337 337 337 337 337 337 336 334 329 327 328 327 325 325 328 331 332 331 330 329 328 327 327 328 330 332 333 333 333 333 333 332 331 329 327 326 327 326 326 326 326 325 324 325 325 324 323 323 325 325 325 325 324 324 324 324 324 323 324
332 335 339 339 340 341 337 333 332 332 332 334 337 338 337 336 335 334 335 335 334 335 335 336 337 337 337 337 337 337 337 336 336 334 329 327 327 326 325 325 326 329 331 332 333 333 333 333 332 333 333 334 334 334 333 332 332 331 330 329 328 327 327 327 327 326 327 326 326 325 325 324 322 322 323 325 325 324 325 325 325 325 325 324 325
336 337 339 339 339 340 339 336 334 335 335 336 337 338 338 338 337 336 336 336 336 336 336 337 336 336 337 337 337 337 337 336 336 333 327 325 326 325 325 325 326 328 330 332 333 333 334 334 334 334 334 334 334 334 333 331 331 330 330 329 328 328 328 328 327 327 327 327 327 326 326 325 323 322 322 324 325 324 325 326 326 326 326 326 326
337 337 338 338 338 338 339 337 336 336 336 337 338 338 338 338 338 337 337 337 337 338 338 338 337 337 337 338 337 337 337 336 335 334 329 325 325 325 324 325 327 328 331 333 334 334 334 334 334 334 334 334 333 333 333 332 330 329 330 330 329 329 328 328 328 328 328 328 327 327 327 327 325 324 323 324 324 324 326 326 327 327 327 326 327
338 338 338 339 338 338 338 338 337 336 337 338 338 339 338 338 338 337 338 338 338 338 338 338 338 338 337 337 337 336 336 336 335 335 333 328 324 324 324 325 327 329 331 333 334 335 334 334 334 334 334 333 333 333 333 332 331 330 330 331 330 330 329 328 328 328 329 329 328 328 327 328 328 327 326 326 325 325 325 325 326 326 326 326 327
339 339 339 339 338 338 338 338 337 337 338 339 339 339 339 338 337 337 337 337 337 338 338 338 338 338 338 337 337 337 336 335 335 336 335 332 328 325 324 326 328 330 333 334 335 335 335 334 334 334 333 333 334 333 333 333 333 332 331 331 331 330 329 329 328 328 330 330 329 329 328 328 329 329 329 328 328 327 326 325 325 325 325 324 325
339 339 339 339 339 338 337 337 338 338 339 339 339 339 339 339 338 337 337 336 337 338 339 338 338 338 337 337 337 337 336 335 335 335 335 335 333 330 329 331 333 333 335 335 335 335 334 334 334 334 333 333 334 333 334 333 333 333 332 331 332 332 331 330 329 329 330 331 330 330 329 330 330 330 331 331 330 329 329 328 327 326 325 324 325
338 339 339 339 339 338 337 337 337 338 338 338 338 339 338 338 338 337 337 337 338 338 338 338 337 337 337 337 337 337 337 336 336 336 335 335 335 334 334 335 335 335 336 336 335 334 334 333 333 334 333 334 334 334 335 334 333 334 333 333 333 333 332 332 332 332 331 332 331 331 331 331 331 332 332 332 332 331 330 330 330 328 328 327 327
338 338 339 339 339 339 338 337 337 337 336 337 337 338 338 337 337 337 337 337 337 338 338 337 336 336 336 336 337 337 337 337 337 337 336 336 335 335 335 335 336 336 336 336 335 334 334 334 334 334 334 334 336 335 335 335 334 334 334 335 334 334 334 334 333 333 333 333 332 332 333 332 332 333 333 333 333 332 332 332 331 331 330 330 329
338 338 338 338 338 338 338 337 337 336 336 336 337 337 337 336 336 336 337 336 337 337 337 336 335 335 335 336 336 337 337 338 338 337 337 336 335 335 335 335 336 336 336 336 335 334 334 334 334 334 334 335 336 336 336 336 335 335 335 334 334 334 334 334 334 334 334 334 334 333 333 333 333 333 333 334 334 334 333 333 333 333 332 332 332
336 337 337 338 338 338 338 338 337 337 336 336 336 336 336 335 335 335 336 336 337 337 336 334 334 335 336 336 336 336 336 338 338 338 337 336 335 335 335 336 336 336 336 336 335 335 334 334 334 334 334 335 335 336 337 337 337 336 335 334 334 334 334 334 334 334 334 334 334 334 334 334 334 334 334 334 334 334 334 334 334 334 334 333 333
335 336 337 337 337 338 338 338 338 337 337 336 336 336 336 335 335 335 335 336 337 336 335 334 334 336 336 336 337 336 336 337 338 338 337 335 335 335 335 335 335 336 336 335 334 335 335 335 334 334 334 334 335 335 336 337 337 336 335 334 333 333 334 334 334 334 334 335 335 334 334 334 334 334 334 334 334 334 335 335 335 335 335 335 334
335 335 336 336 337 337 337 338 338 338 337 336 336 336 336 335 335 334 335 336 336 335 334 333 333 335 336 336 337 337 337 337 337 337 336 335 335 335 335 334 335 335 336 335 334 334 336 336 335 335 335 335 335 335 336 336 336 334 333 333 334 334 333 334 334 335 334 335 335 334 335 334 335 335 335 335 335 335 335 335 335 335 335 335 335
334 334 335 336 337 337 338 338 338 338 338 337 336 336 336 335 335 335 335 336 335 335 334 333 334 335 335 336 336 336 337 336 337 337 336 335 335 335 335 334 334 334 335 335 334 335 337 336 336 335 335 335 335 335 336 335 335 334 332 333 335 335 336 334 333 334 334 334 334 335 335 335 335 336 335 336 336 336 336 336 336 336 336 336 336
333 333 334 335 336 337 338 338 338 338 338 338 338 337 336 335 335 336 335 335 335 334 334 334 334 335 335 335 335 336 336 336 336 336 335 335 334 334 334 334 334 334 335 335 333 335 338 337 336 336 335 335 335 335 335 335 335 335 333 333 332 335 339 336 332 333 333 333 334 334 334 335 335 336 336 336 336 336 337 336 336 336 336 336 336
333 333 333 334 336 336 337 337 338 338 338 338 338 338 337 336 336 336 336 335 335 335 334 334 334 335 334 334 334 335 336 336 336 335 334 333 333 332 331 333 334 335 336 336 334 335 337 337 336 336 335 335 335 335 335 335 335 335 334 333 332 336 340 335 331 334 333 333 335 334 334 335 335 336 336 336 336 336 337 337 336 336 336 336 336
334 334 335 334 335 336 335 336 338 338 338 338 339 339 338 337 337 337 336 336 335 335 335 335 334 334 334 334 334 334 335 335 335 335 334 333 332 332 332 333 334 336 336 336 336 336 337 336 336 336 336 336 336 335 335 334 334 334 334 333 332 334 335 333 334 337 334 332 334 334 334 334 335 335 335 335 336 336 336 336 336 335 335 335 335
334 336 336 335 335 335 335 336 338 338 338 338 338 339 338 338 337 337 336 336 335 335 335 335 334 334 334 333 333 333 333 334 335 335 334 332 332 332 332 333 332 333 334 333 334 334 336 336 336 336 336 336 335 335 334 334 334 333 333 333 332 332 332 333 335 335 335 335 334 333 334 334 334 335 334 334 335 335 336 336 336 335 334 335 335
334 336 337 337 336 336 336 336 338 338 338 338 338 338 338 338 337 336 336 335 335 334 334 334 334 333 333 333 332 332 333 333 334 335 334 333 333 332 331 331 330 331 332 332 332 332 334 335 336 336 336 336 335 335 335 335 334 333 333 332 332 333 332 332 333 333 334 336 335 334 333 332 333 333 334 334 334 335 335 335 336 335 335 335 335
334 335 337 338 338 338 338 338 338 338 338 338 338 338 338 337 337 336 335 335 335 335 334 334 334 334 334 334 334 334 333 334 334 334 334 334 334 333 332 331 332 332 332 332 332 332 332 333 334 335 336 336 336 335 335 334 335 334 333 332 332 332 332 332 332 332 333 335 337 337 334 332 333 333 332 334 334 335 335 334 335 334 335 334 334
333 334 336 338 338 338 339 339 338 338 338 337 338 338 337 337 336 336 336 336 336 336 335 335 335 335 335 335 335 335 335 335 335 335 335 335 335 335 334 334 334 333 333 333 332 332 332 332 332 333 334 335 336 336 335 335 335 334 333 332 332 332 332 332 332 332 333 333 335 336 332 332 333 333 333 334 334 335 334 333 333 333 334 333 334
333 334 335 337 338 338 338 338 338 337 337 336 337 337 336 336 336 337 336 336 336 336 336 335 335 335 335 335 335 334 335 335 335 335 335 335 335 336 336 335 335 335 334 334 333 333 333 333 332 332 333 333 334 336 336 335 335 334 333 333 332 332 333 333 332 332 332 332 333 334 332 332 333 333 333 335 334 334 334 333 332 332 333 333 333
Wind_Speed
14 14 14 14 14 15 15 17 18 19 19 17 18 18 20 20 20 19 18 17 16 15 15 15 15 14 15 15 16 16 16 16 16 17 17 17 16 16 15 14 14 14 14 14 14 14 13 13 13 15 15 16 16 17 16 16 17 16 16 16 17 19 19 19 19 19 18 18 17 16 16 16 17 16 15 15 16 15 14 15 16 16 17 16 15
16 16 15 14 14 14 16 17 18 18 18 17 18 19 20 19 19 19 17 16 15 14 14 14 14 13 13 14 15 15 15 16 17 17 18 17 16 15 14 13 13 13 13 14 14 14 14 15 17 18 18 18 18 17 16 17 18 17 17 18 19 19 20 19 17 17 17 18 17 15 16 17 16 16 14 16 17 16 15 15 16 17 17 15 15
17 17 15 15 15 16 17 17 18 18 18 17 18 19 19 19 19 18 17 16 14 14 14 14 14 14 14 14 15 15 15 17 18 18 17 16 15 14 13 13 13 13 13 14 16 17 17 19 19 19 19 18 17 16 17 17 18 18 18 18 19 19 19 18 16 16 17 17 16 15 17 17 16 16 15 16 16 15 15 15 17 17 17 16 16
18 18 16 16 16 18 18 17 18 18 19 19 19 19 19 19 19 18 17 16 14 14 14 13 13 13 14 15 15 15 17 18 18 17 16 15 14 14 14 14 13 13 14 16 18 19 20 20 19 19 19 18 17 16 17 17 17 17 17 18 18 17 17 16 16 16 17 17 16 17 17 16 17 16 15 16 15 15 15 16 17 17 17 16 17
18 18 17 17 17 18 18 18 17 18 19 19 20 19 19 19 18 17 16 16 14 14 14 14 13 14 15 16 15 16 18 18 17 16 16 15 14 15 15 15 14 15 16 18 19 20 20 19 18 17 18 18 17 17 18 17 17 17 17 17 16 15 16 16 16 17 17 18 17 17 17 16 17 15 15 16 14 15 16 17 17 16 16 16 15
18 18 18 18 18 19 18 18 17 18 19 19 19 19 19 18 17 17 16 15 14 14 14 14 15 15 16 17 17 17 19 18 16 15 16 15 15 15 15 14 14 16 16 17 18 19 19 18 17 16 16 18 18 18 18 18 17 17 16 16 15 14 15 15 16 17 18 18 17 16 16 16 15 14 15 15 14 15 16 16 17 16 16 16 16
18 18 18 19 20 19 18 18 17 18 18 18 19 19 18 18 17 17 16 15 14 14 14 15 16 17 18 19 19 19 18 17 15 14 15 15 15 15 15 14 15 16 16 16 17 17 18 17 15 15 15 17 17 17 18 18 17 16 16 15 14 14 15 16 16 17 17 17 17 17 16 15 14 14 14 14 14 15 16 15 16 16 16 16 17
17 18 18 19 20 19 19 18 18 18 17 17 18 18 18 17 17 16 16 15 15 15 14 16 18 19 20 19 19 18 17 16 15 14 14 15 15 15 14 14 16 16 15 15 15 16 16 15 14 14 14 15 16 16 16 16 16 16 14 13 14 15 16 16 16 16 15 16 17 17 15 14 14 13 13 14 14 15 15 15 16 16 16 16 16
16 17 18 19 19 20 19 19 19 18 18 17 18 18 17 17 17 16 16 16 16 15 15 17 18 18 19 18 18 18 16 16 15 14 14 14 14 14 13 14 16 15 14 14 14 15 15 13 13 13 13 14 14 15 14 13 15 15 13 13 14 15 16 15 15 15 15 16 17 16 15 14 13 13 13 14 14 14 13 14 14 15 15 16 16
16 17 18 19 19 19 20 20 19 18 18 17 17 17 17 17 16 16 16 16 16 17 16 16 17 17 17 17 17 17 16 16 15 14 14 13 13 13 12 14 16 15 14 14 15 15 13 12 12 12 11 12 13 14 12 11 13 12 12 13 13 13 14 14 14 15 16 16 15 14 13 13 12 12 13 13 13 14 13 14 14 14 15 15 15
16 16 17 18 18 18 20 20 19 18 18 17 17 17 17 16 16 16 16 16 16 17 16 16 15 15 15 15 16 16 15 15 14 14 14 13 12 12 12 13 16 15 14 14 14 13 12 11 11 11 11 12 13 12 10 9 9 9 11 12 12 12 12 12 12 14 15 14 12 12 12 12 12 12 13 13 14 15 14 14 14 14 15 15 14
16 16 16 17 17 18 19 19 19 18 17 17 16 17 17 16 16 17 16 16 16 16 15 15 15 15 14 14 15 14 14 14 13 13 13 12 11 11 12 11 15 16 14 13 13 12 11 11 11 11 12 12 12 10 9 7 6 8 11 10 10 10 10 10 11 12 13 12 12 13 13 12 13 12 12 13 13 13 13 14 14 13 14 14 14
16 16 16 18 17 18 18 18 18 18 17 16 16 16 16 16 16 17 17 16 15 15 15 15 15 15 14 13 12 12 12 12 12 12 11 11 11 11 11 9 12 16 14 14 13 12 12 12 11 11 12 11 9 8 7 5 5 8 10 8 8 9 9 8 9 11 12 12 13 13 12 11 12 11 11 12 13 13 13 13 12 12 13 13 14
17 16 17 18 18 18 18 18 17 17 16 16 15 15 16 16 16 16 16 15 15 14 14 14 14 13 12 12 11 11 11 11 11 11 10 10 10 11 10 9 9 13 14 13 13 12 12 12 12 12 12 9 7 6 5 4 4 5 7 7 7 8 7 8 9 10 11 13 13 13 11 10 10 10 11 12 12 12 12 12 11 12 12 13 13
17 16 17 18 18 17 17 16 17 16 15 16 15 15 15 16 16 15 14 14 13 13 13 13 13 12 12 11 11 11 10 10 10 9 10 9 10 10 10 8 7 10 11 12 13 13 13 13 13 12 10 7 5 5 5 4 4 4 5 7 7 6 6 7 9 9 12 14 14 13 12 10 10 10 10 11 12 11 11 12 11 11 12 12 12
17 18 18 17 17 16 16 16 15 15 15 16 16 15 15 15 15 14 13 12 12 11 12 12 11 11 11 10 10 10 10 10 9 9 9 9 9 9 9 7 7 7 9 11 13 14 14 14 13 12 9 6 5 4 5 5 6 6 6 7 7 6 6 7 8 10 13 15 14 13 12 10 9 8 10 11 11 10 11 11 10 10 11 12 12
18 18 18 17 17 16 16 15 15 14 15 16 15 15 15 15 14 13 12 11 10 10 10 10 10 10 10 10 10 9 10 10 9 8 8 9 8 8 7 6 6 6 9 12 13 14 15 14 13 11 10 8 8 6 6 9 9 9 8 8 7 6 6 6 8 10 13 14 13 12 11 10 9 9 10 11 9 10 11 10 8 8 10 11 11
17 18 18 17 16 16 16 16 15 15 15 15 14 13 14 14 13 12 11 10 9 9 8 8 8 9 9 9 9 9 9 10 9 8 7 8 8 7 6 6 6 6 8 13 15 15 15 14 13 11 10 10 11 9 8 10 11 10 10 8 7 6 5 5 7 10 12 13 12 11 10 10 9 9 10 10 9 9 9 9 8 8 9 9 9
16 16 17 16 15 15 15 15 16 16 15 14 13 13 13 12 12 11 10 9 8 8 8 8 8 8 8 7 7 8 8 8 8 7 6 7 7 6 5 5 5 5 7 13 16 15 15 13 12 11 10 10 11 11 9 10 10 10 10 8 7 5 4 4 6 9 11 11 10 10 10 9 9 9 9 10 9 8 8 8 8 8 8 8 8
15 14 14 14 14 15 14 15 16 16 14 13 13 13 13 12 11 11 9 9 8 8 8 8 8 8 6 6 6 7 7 7 8 7 6 6 6 5 4 4 4 4 6 11 15 15 14 13 12 11 10 10 11 10 9 9 9 10 9 8 6 4 4 4 6 8 10 11 11 10 10 9 9 8 9 9 8 7 7 7 7 7 7 7 8
14 12 12 12 12 14 14 14 15 15 14 14 13 13 12 12 11 10 9 8 8 8 8 8 9 8 6 6 6 6 6 7 7 6 6 6 6 5 3 3 4 4 5 10 15 16 14 13 12 10 9 10 11 11 9 8 8 9 8 7 5 3 3 4 5 8 9 11 11 10 9 9 8 8 8 8 7 7 7 7 6 6 7 7 7
12 11 11 11 11 13 14 14 14 14 14 14 13 13 12 12 11 10 10 8 8 9 8 8 10 9 7 6 5 4 4 6 8 7 6 6 6 4 3 2 4 4 5 9 14 16 15 13 12 10 9 11 11 12 10 8 7 7 6 5 4 3 3 3 5 7 9 11 11 10 8 8 8 7 7 7 7 8 7 6 5 6 7 6 5
10 10 11 11 11 13 14 14 14 13 13 13 13 12 12 11 10 10 9 8 8 8 7 9 9 8 7 6 5 3 2 4 8 7 6 6 6 5 3 2 3 4 5 9 13 16 15 14 12 9 8 11 11 11 9 8 7 6 5 5 3 3 3 3 4 6 9 11 11 9 8 8 7 7 7 7 7 7 6 4 4 6 6 4 4
10 11 11 11 12 13 14 14 13 12 12 13 12 11 11 10 10 9 8 8 7 7 8 9 8 6 6 5 4 3 1 3 8 7 6 7 6 6 4 2 3 4 6 8 13 16 16 14 12 9 8 9 10 10 9 8 6 5 5 5 3 2 3 3 3 5 8 10 10 8 8 8 7 7 7 7 6 6 5 4 5 5 4 3 3
12 11 12 12 12 13 13 14 12 11 11 12 11 10 10 10 9 9 8 8 7 8 9 9 8 7 5 4 3 2 2 4 8 8 7 8 6 6 6 4 2 4 6 7 12 16 16 15 12 9 7 7 8 8 9 8 6 5 4 4 4 3 2 2 2 4 7 9 9 8 8 8 7 6 6 6 6 5 4 4 4 3 2 3 3
12 12 13 12 12 13 13 14 12 11 10 10 11 10 9 9 8 8 8 8 7 8 10 9 7 7 6 5 4 3 3 6 8 7 7 8 6 6 7 5 3 3 5 6 10 15 16 15 11 9 7 6 5 6 6 7 6 4 3 3 4 4 2 1 2 4 6 8 10 9 8 8 7 6 5 6 6 5 4 4 3 2 1 3 3
14 13 13 13 12 13 12 12 12 11 10 9 9 9 9 8 8 8 8 8 7 8 9 8 6 5 4 4 3 3 3 6 7 7 7 7 5 5 6 6 5 4 4 6 9 13 15 14 11 9 7 5 3 3 4 4 5 4 1 3 4 4 3 2 2 3 5 7 8 8 9 8 7 7 6 6 6 5 5 4 3 2 2 3 3
17 15 13 13 13 13 12 12 11 10 9 9 9 8 8 8 8 8 7 7 7 7 8 7 5 4 3 2 1 1 1 3 5 5 6 6 4 4 5 6 6 5 5 6 8 10 12 12 10 8 6 4 2 1 3 3 4 3 2 2 4 5 4 3 3 3 4 5 7 7 8 8 8 7 7 6 6 5 5 4 4 3 3 4 3
19 17 15 14 14 13 13 13 11 10 9 9 8 8 8 9 9 8 8 7 7 7 7 7 5 4 4 2 2 2 2 2 3 4 5 6 4 4 5 6 7 7 7 7 7 8 9 9 8 7 6 4 4 3 4 5 5 5 4 4 5 5 4 4 4 3 3 3 5 6 7 8 8 7 7 7 6 5 5 5 5 4 3 4 4
22 19 17 16 15 14 14 14 13 12 11 10 9 9 9 10 10 9 9 9 8 7 7 6 5 5 5 3 2 3 3 3 3 3 5 6 5 5 5 6 7 8 8 7 6 6 6 7 7 7 6 7 6 6 6 7 6 6 6 6 5 5 4 4 4 4 2 2 3 5 6 7 7 7 7 7 6 6 6 6 5 5 4 3 4
24 22 19 17 16 16 15 15 14 13 12 11 10 9 9 10 10 10 10 9 9 8 7 6 5 5 3 2 3 4 4 3 4 4 5 7 7 6 6 7 7 7 7 5 4 3 4 5 5 6 7 8 8 7 7 8 7 7 7 6 5 5 5 4 5 5 3 2 2 3 5 6 6 6 6 6 6 7 7 6 6 6 6 5 5
24 23 20 18 17 17 16 15 15 14 13 12 12 11 10 10 10 10 10 9 9 9 8 8 7 5 4 4 5 6 5 4 4 3 4 7 7 7 7 7 7 7 5 4 3 4 4 4 4 5 6 7 7 6 7 8 7 8 8 6 6 7 7 6 5 5 5 4 3 2 3 4 5 5 5 4 5 6 7 7 6 6 7 7 7
22 21 19 17 17 17 17 16 16 15 14 14 13 12 11 10 10 11 11 10 10 9 8 8 8 7 7 6 7 7 6 5 5 4 4 6 7 8 8 8 8 6 5 5 5 6 7 7 6 6 6 6 6 5 6 7 7 8 7 6 7 8 8 8 7 6 6 5 4 4 3 3 4 4 4 3 3 5 6 7 7 7 7 8 8
19 19 18 17 17 18 18 18 18 17 16 15 14 13 12 11 11 12 12 12 11 11 10 9 9 9 8 8 8 7 7 7 6 5 5 7 8 9 9 9 8 7 7 7 8 9 9 9 8 7 7 7 6 6 6 6 6 7 7 6 7 8 10 10 9 8 7 6 6 5 5 4 3 3 3 3 3 4 4 5 6 7 7 7 8
18 19 19 18 18 18 19 19 19 18 17 16 15 14 13 12 11 11 13 13 13 12 11 10 9 9 9 9 9 8 8 9 8 7 7 8 9 10 10 10 9 9 9 9 11 11 10 9 8 8 8 7 7 7 7 6 5 6 7 7 7 8 10 11 10 10 8 7 6 6 6 5 4 3 2 2 3 4 4 4 4 5 6 7 7
17 18 19 18 19 19 19 19 19 19 18 17 16 15 14 13 12 11 12 13 14 14 12 11 10 9 10 10 10 10 9 10 10 9 9 10 11 11 11 10 10 10 11 11 11 11 10 9 9 8 8 8 8 9 9 8 7 6 7 8 9 9 10 11 11 11 10 9 7 6 6 6 6 5 4 4 4 4 4 4 4 5 5 6 7
17 18 19 19 19 19 20 20 20 19 18 17 16 15 14 13 13 12 11 12 14 14 12 11 10 10 11 11 11 11 11 10 10 9 9 11 12 13 12 11 11 10 10 11 10 9 8 9 9 9 8 8 8 9 9 8 8 8 8 9 10 11 11 11 11 11 11 11 9 7 7 6 6 6 5 5 5 5 5 5 5 6 6 6 6
18 18 19 19 19 18 19 20 19 19 18 17 16 14 13 12 13 13 12 12 12 12 10 10 10 10 11 11 11 12 12 11 10 9 10 10 11 13 12 12 11 10 10 10 10 9 9 9 10 9 9 8 8 8 7 7 8 9 10 10 11 12 12 13 12 12 12 11 11 10 9 8 8 8 8 7 7 7 7 7 7 8 7 7 7
18 17 18 18 17 17 18 18 18 18 17 16 15 14 12 12 13 14 13 12 11 11 11 10 10 11 11 11 11 12 12 11 10 10 9 10 10 11 12 12 11 10 10 10 11 10 10 11 11 10 10 9 9 7 7 7 8 9 10 11 11 12 13 13 13 13 13 13 13 13 12 11 11 10 10 10 10 9 9 8 9 10 9 9 9
18 17 17 17 17 17 16 16 17 16 17 16 16 14 13 12 13 15 14 13 12 12 12 10 10 11 11 11 11 11 12 12 11 10 9 10 10 11 11 12 11 10 10 11 12 11 10 11 12 11 11 11 11 9 8 8 9 9 11 12 12 13 13 12 13 14 14 15 15 15 15 14 14 13 13 12 12 12 11 11 11 11 11 11 11
17 17 17 17 17 16 16 16 16 15 16 17 17 16 14 14 15 16 16 14 13 13 12 11 10 11 11 10 10 11 11 12 11 10 9 10 11 11 11 11 11 11 11 12 12 11 10 11 11 12 12 12 12 10 10 10 9 10 11 12 13 14 14 14 14 14 14 15 15 16 16 16 16 15 14 14 14 13 12 12 13 12 13 13 13
18 18 18 17 16 16 16 16 16 16 16 17 17 17 16 15 15 16 16 14 13 13 13 12 11 10 10 10 10 10 10 11 11 10 9 9 9 9 9 11 11 11 11 11 13 13 11 11 11 12 12 12 12 10 10 10 8 7 7 8 10 11 13 14 16 16 15 15 15 16 16 16 16 14 14 14 14 14 13 12 12 12 13 13 13
18 18 17 17 17 17 17 17 17 16 16 17 17 17 15 14 14 12 13 13 11 11 12 11 11 11 10 10 10 10 10 10 10 10 9 8 9 8 8 9 9 9 9 11 15 15 12 11 12 13 12 12 11 11 11 10 8 6 5 4 3 4 6 9 11 14 14 15 15 16 16 16 15 14 14 15 14 13 12 12 12 12 12 12 13
15 16 17 17 17 17 18 18 17 17 17 17 17 16 14 14 13 10 9 10 10 10 11 10 11 11 11 10 10 10 11 10 10 9 8 7 7 7 6 7 7 8 8 10 15 17 13 12 13 13 13 13 12 11 10 11 10 7 3 1 1 1 2 3 7 8 9 10 12 14 15 16 15 14 15 14 13 12 12 11 11 11 12 12 12
12 14 16 16 16 17 18 18 17 16 16 16 16 16 14 14 13 11 9 9 9 8 10 11 12 12 12 12 11 11 10 10 10 10 9 8 7 6 6 7 7 8 8 10 15 16 13 13 13 13 14 14 14 12 11 11 10 9 6 3 1 1 1 3 6 6 6 6 8 9 11 13 13 14 15 14 13 13 12 13 13 13 12 12 12
14 13 15 16 16 16 17 17 16 15 15 15 16 16 15 14 13 12 10 10 10 9 10 11 12 12 13 13 12 12 11 11 11 11 10 10 9 9 8 8 8 9 10 12 14 14 13 14 13 13 14 14 15 14 13 12 10 10 11 10 8 4 2 4 3 3 7 8 6 6 7 9 11 12 13 14 14 14 13 13 14 13 13 13 12
15 14 14 15 16 16 16 16 15 15 14 14 16 16 16 15 14 13 12 12 12 11 11 11 11 11 11 12 12 12 12 12 12 11 11 11 10 10 10 10 11 11 12 13 13 13 13 13 14 14 15 14 14 15 15 14 11 10 10 12 14 13 10 6 2 1 4 6 8 10 9 8 9 11 12 13 13 14 14 14 13 13 12 11 11
14 13 13 14 15 15 14 13 14 14 13 14 15 16 16 15 15 14 14 13 13 12 11 11 10 10 10 10 10 10 11 12 12 11 11 11 11 11 11 12 12 12 13 13 13 12 12 13 14 15 15 14 14 15 15 14 13 12 10 10 12 14 14 12 7 4 1 2 8 12 12 12 11 11 11 12 13 13 13 14 14 14 12 11 11
13 13 13 13 14 15 13 12 12 13 13 13 15 16 15 15 14 14 14 13 12 11 10 9 9 8 8 7 7 8 8 10 11 11 11 12 12 13 13 14 14 13 13 13 13 13 12 12 13 14 15 15 15 15 15 15 14 14 13 12 10 10 11 11 10 8 5 3 3 5 9 13 13 13 12 11 11 10 11 13 13 14 13 12 12
11 12 13 13 14 14 13 13 13 13 12 13 14 15 15 14 14 13 13 12 10 9 8 8 7 6 6 5 5 5 6 7 8 9 11 12 13 14 15 16 16 15 14 14 14 14 13 12 12 13 14 15 16 16 16 15 15 15 15 14 12 10 8 6 7 7 7 6 4 5 10 11 10 14 14 11 9 8 8 10 11 13 14 14 13
11 12 13 15 15 15 15 15 15 14 13 12 14 14 15 15 14 13 13 11 10 9 9 7 6 6 6 5 5 5 6 6 7 8 9 10 11 13 14 15 16 16 16 16 16 16 15 14 13 13 14 15 15 15 16 15 15 15 15 15 15 14 11 9 8 8 6 6 4 5 11 12 11 13 13 11 9 7 7 8 8 10 12 13 13
Wind_Direction
137 135 136 132 132 132 132 136 131 126 122 121 122 120 118 116 115 111 109 110 112 118 124 129 132 133 133 130 126 126 127 126 124 123 122 120 116 111 107 105 106 106 107 108 106 103 102 104 104 102 101 101 100 101 103 104 104 111 116 111 106 100 98 95 91 91 89 89 90 88 84 80 79 76 76 77 77 80 87 92 92 88 83 80 79
141 140 137 134 135 133 135 136 129 124 121 121 122 119 117 115 112 108 106 106 111 116 122 129 132 134 133 128 126 129 131 126 122 120 118 115 111 108 107 107 105 105 106 108 108 107 106 106 103 100 99 100 101 103 104 105 107 110 111 108 103 96 94 93 91 90 88 89 88 84 79 75 75 78 81 80 80 84 87 90 91 88 85 83 81
139 140 138 139 138 135 136 135 127 124 123 123 122 120 117 114 110 107 105 105 111 116 120 125 128 131 132 132 131 133 129 123 120 115 112 109 108 108 108 106 103 102 103 106 108 108 105 104 103 103 103 103 103 106 106 106 109 109 107 104 101 100 99 97 97 94 92 94 95 89 80 76 79 83 83 81 83 89 89 88 87 85 85 83 79
138 140 139 139 136 136 135 132 126 125 126 125 123 120 117 114 110 108 106 106 110 117 121 123 126 127 129 133 134 132 125 118 117 114 110 108 106 105 102 99 98 99 100 104 106 106 105 104 106 106 106 107 107 109 108 106 107 106 105 105 106 108 104 99 99 97 97 100 98 89 82 83 85 84 84 84 86 88 87 88 88 88 85 81 78
138 139 139 137 134 137 134 129 128 128 127 125 124 120 117 114 111 109 107 107 110 116 118 119 121 124 127 129 128 125 120 114 112 112 110 107 102 97 95 96 97 99 102 106 107 107 106 106 108 110 111 112 113 112 110 107 105 105 104 104 106 106 104 101 100 100 101 100 94 88 88 90 87 86 87 87 88 87 84 84 86 87 85 81 80
140 140 138 136 135 137 133 130 130 130 127 125 123 120 117 113 111 108 107 107 108 112 114 116 118 123 125 123 121 117 114 112 110 111 107 101 95 92 90 94 100 105 107 110 110 108 108 109 112 114 114 114 113 113 111 107 104 104 102 100 100 100 100 99 100 104 104 100 96 96 98 93 92 93 90 88 88 87 83 82 83 85 85 81 80
141 141 138 136 136 136 134 132 131 129 125 123 121 119 116 112 110 107 107 107 108 111 113 117 120 124 122 117 117 114 114 114 113 109 102 96 91 88 88 94 102 110 113 113 113 111 111 112 113 112 112 115 114 112 112 111 109 105 102 100 96 96 94 95 101 105 105 104 104 103 99 95 95 92 89 89 86 85 86 86 81 81 84 83 84
141 141 138 136 135 137 137 133 131 127 124 123 119 117 116 113 111 108 108 109 111 112 113 118 121 122 121 119 118 118 119 117 115 107 97 92 87 84 87 97 104 111 116 117 117 115 115 114 110 109 109 114 113 109 110 113 116 110 105 102 97 96 94 95 104 109 111 110 108 103 97 100 101 94 90 89 86 85 87 88 84 81 82 85 88
142 142 139 137 138 140 138 133 131 128 127 124 120 118 117 115 112 110 110 110 112 114 115 119 121 121 123 124 123 123 122 119 116 106 98 92 88 85 87 100 107 111 118 119 119 118 121 116 109 109 107 111 107 97 98 104 115 116 106 105 103 99 96 96 107 118 118 113 110 104 100 105 102 95 91 86 86 87 86 85 87 87 86 85 83
144 144 139 139 142 141 136 133 132 131 130 125 123 121 118 117 114 111 111 113 114 117 119 119 119 121 125 126 126 126 124 121 116 109 104 97 92 91 92 104 110 113 118 120 120 122 122 115 110 109 106 106 99 90 87 89 106 118 113 111 108 102 100 99 111 123 121 116 111 104 107 111 103 97 95 90 88 88 85 82 82 87 92 87 80
146 145 140 141 142 139 133 132 133 132 130 126 125 122 120 120 117 114 112 116 117 119 121 120 119 122 126 128 128 128 124 121 117 112 108 102 94 93 97 105 115 118 120 122 123 123 119 114 109 105 106 105 100 95 92 89 95 116 124 118 112 106 103 103 116 127 126 121 108 103 112 116 111 103 100 99 92 86 83 82 80 82 87 87 82
148 147 143 140 140 137 133 134 134 132 130 127 127 124 123 122 119 117 115 117 118 120 120 118 120 122 124 125 127 126 123 119 116 113 108 103 95 94 96 102 121 125 125 127 127 124 118 113 109 107 113 110 105 102 100 99 95 117 132 126 117 110 106 107 120 131 129 117 106 109 112 113 112 102 101 102 93 87 87 86 83 82 83 85 85
150 149 145 139 138 137 136 136 135 133 131 129 127 125 125 124 122 120 120 120 119 118 118 118 119 120 119 120 122 122 122 119 115 113 109 104 95 94 94 95 123 132 133 135 132 126 123 119 117 119 119 112 109 111 108 102 97 120 136 130 122 118 112 113 123 131 128 113 111 119 116 118 121 107 105 103 95 93 92 88 85 86 87 86 89
148 150 144 137 137 139 139 139 137 135 133 130 127 128 129 128 126 125 125 125 124 123 122 123 122 121 123 123 123 122 122 121 118 115 111 105 97 96 93 90 117 139 143 143 140 131 128 127 126 124 116 112 114 120 124 122 115 129 142 138 133 129 120 119 127 130 125 118 119 126 118 119 124 109 104 101 98 96 92 91 91 90 86 86 91
146 146 140 137 139 142 144 141 139 136 135 132 129 132 132 131 131 130 129 129 130 130 131 131 129 128 128 128 126 124 122 121 120 117 113 106 100 97 92 88 105 139 144 139 140 135 134 133 129 123 112 109 113 120 133 139 144 147 150 149 146 140 124 119 127 128 124 124 127 129 122 120 118 106 104 103 96 91 92 94 94 95 86 85 91
143 143 140 141 142 144 145 143 141 138 137 133 131 132 132 133 133 132 131 131 131 133 135 135 134 133 134 133 130 128 125 124 121 119 115 107 102 98 93 89 93 125 142 139 139 139 138 134 129 119 105 98 98 117 139 149 154 152 150 153 152 142 126 119 124 127 128 133 138 138 133 129 122 114 112 105 96 96 100 94 91 96 93 89 88
142 144 143 144 145 146 145 143 141 137 135 132 132 133 131 133 133 133 131 132 132 134 135 135 137 139 142 139 134 133 129 128 125 122 118 108 104 100 94 91 87 105 141 153 151 147 141 135 129 115 101 89 82 95 131 148 155 157 153 152 151 140 128 122 123 129 136 142 146 143 137 130 125 121 115 104 100 109 106 96 93 94 97 97 90
143 145 145 145 147 146 145 143 141 137 134 133 135 134 132 134 134 133 132 134 137 139 141 139 144 145 144 140 136 136 133 131 129 126 121 111 108 106 100 92 87 93 133 157 159 152 144 138 131 115 101 85 78 85 116 142 152 158 156 153 149 137 131 128 128 136 144 148 145 137 130 125 119 116 112 102 107 115 104 101 107 101 98 99 93
142 144 144 146 149 148 146 146 144 139 137 139 139 137 134 135 135 134 132 134 138 142 148 149 151 149 143 135 130 133 135 133 130 130 125 117 115 115 109 96 89 89 123 154 161 156 147 142 134 119 102 84 80 88 109 134 148 155 156 154 148 135 131 133 136 143 150 147 136 127 124 123 119 120 115 104 112 117 102 103 111 108 102 101 98
140 143 144 149 152 150 148 146 145 140 141 143 140 138 136 135 135 136 134 132 133 138 148 154 150 147 142 132 128 132 136 134 129 129 129 124 122 121 116 104 90 84 116 151 163 159 152 149 138 124 107 88 82 90 111 132 144 154 159 158 146 132 127 133 142 147 150 142 132 127 128 129 124 124 119 110 118 121 111 110 109 109 108 109 106
140 142 146 156 157 151 149 148 146 144 145 142 138 138 137 136 135 137 136 131 128 127 139 149 145 143 144 140 138 137 137 139 133 131 137 130 124 124 122 111 87 79 115 149 164 162 157 155 144 130 112 96 86 88 106 132 147 155 161 157 142 124 115 127 144 150 150 141 136 135 136 135 129 127 123 119 123 124 124 117 108 109 111 112 110
140 145 153 163 164 155 151 152 150 148 148 142 138 139 140 138 138 140 136 130 123 118 125 142 149 152 156 158 156 151 143 151 150 146 147 137 130 130 133 118 83 75 109 145 163 165 163 161 150 137 116 103 92 89 98 122 149 162 162 154 141 126 110 121 144 153 152 144 143 143 141 138 133 133 125 122 124 127 129 115 107 116 119 117 107
141 153 160 165 170 162 155 155 153 151 149 144 141 141 142 141 142 143 137 130 121 115 120 139 154 159 165 173 178 177 159 164 164 157 152 148 141 142 151 122 81 72 98 139 161 166 168 166 156 144 122 110 97 89 93 112 145 164 164 159 154 135 113 115 140 157 158 153 152 150 149 145 141 137 127 126 130 134 137 122 115 120 122 118 107
163 169 168 169 175 170 160 157 157 155 150 145 143 143 144 145 148 145 139 131 121 116 118 131 147 155 168 181 191 200 215 162 163 162 162 160 153 152 161 150 89 71 87 132 160 167 170 169 162 151 131 117 101 86 83 94 122 138 152 168 174 152 120 111 138 161 169 168 162 154 152 150 147 141 133 132 134 139 141 131 126 124 126 121 117
181 186 180 177 178 177 166 159 161 159 153 150 148 150 151 151 153 149 143 137 129 124 121 124 130 134 147 156 166 194 209 166 164 169 171 172 170 160 161 165 122 79 84 123 156 168 172 172 168 158 142 127 108 89 76 74 92 113 138 170 188 180 137 116 142 163 173 171 159 156 159 156 155 147 142 143 142 145 148 149 140 131 139 138 133
185 195 188 183 180 178 170 163 165 162 157 156 153 155 156 156 158 156 151 145 140 136 130 125 121 123 125 120 110 112 143 162 169 173 176 183 180 161 156 163 152 105 96 119 151 167 174 175 173 164 155 141 117 94 75 62 66 90 132 174 198 200 176 146 155 160 168 164 158 167 170 163 163 155 152 155 153 157 164 173 163 148 161 151 148
187 205 193 185 183 178 174 172 172 166 161 162 163 162 159 163 165 163 164 158 151 149 142 132 126 130 126 117 100 83 116 157 176 184 189 191 181 159 155 159 160 145 124 125 147 165 175 178 177 173 169 156 124 74 51 45 42 49 112 190 208 211 204 198 176 157 166 168 169 178 175 172 176 166 164 166 159 169 182 192 202 202 177 165 164
191 210 201 189 187 179 179 180 178 176 172 169 172 173 171 173 174 172 174 171 166 161 153 143 141 148 147 150 132 64 121 159 175 190 200 199 189 168 157 156 158 153 142 136 147 163 174 180 181 185 183 177 170 19 353 343 346 346 315 233 218 218 219 219 207 166 164 173 177 183 178 180 188 177 174 178 170 186 205 200 213 227 188 182 190
195 209 207 197 191 182 182 187 188 189 185 180 181 185 185 184 185 184 185 187 181 176 170 161 163 169 169 196 238 256 248 207 176 183 201 204 201 188 170 163 158 150 146 142 149 160 172 183 190 196 198 206 218 251 293 298 298 297 281 251 224 218 225 227 223 196 166 168 176 185 186 190 198 190 181 183 184 201 224 216 209 227 209 193 208
194 204 208 203 197 189 188 195 196 194 193 190 190 193 196 195 195 192 194 200 196 190 188 182 193 199 183 188 241 255 242 220 196 187 198 203 206 202 190 181 172 165 158 154 159 171 184 196 206 214 221 236 250 263 273 276 275 271 262 249 228 219 228 233 231 223 197 173 173 181 190 199 204 200 189 190 196 203 226 236 221 224 225 210 221
192 199 204 204 201 197 196 199 199 198 197 196 198 202 204 203 202 199 201 207 205 201 200 200 215 224 210 206 241 251 243 215 201 197 198 201 207 207 203 198 190 186 182 181 189 206 214 215 223 233 245 257 262 266 266 265 264 255 247 241 235 229 233 238 238 238 233 212 191 180 186 198 204 205 197 194 204 205 213 229 226 228 239 243 237
193 195 200 201 201 202 203 205 203 202 202 202 207 210 212 211 210 210 210 211 211 211 206 209 221 228 224 222 240 248 246 225 202 197 196 201 210 210 209 205 201 202 208 221 238 258 266 263 261 256 262 268 265 262 256 255 251 241 237 241 245 242 242 245 248 249 251 245 230 211 190 190 192 200 201 198 207 208 210 221 224 229 245 252 250
198 198 200 199 200 204 207 209 207 207 208 209 211 213 214 215 215 217 219 219 219 220 214 212 218 219 216 217 229 239 239 226 205 193 193 202 214 218 215 211 209 215 232 261 278 287 290 289 287 275 269 270 268 261 249 243 234 228 232 245 254 256 252 251 257 260 262 261 253 245 227 205 193 190 195 204 217 217 214 222 228 235 244 248 249
202 200 202 201 201 205 208 211 209 209 210 211 214 213 214 216 217 218 221 226 227 226 221 215 215 213 212 214 221 229 226 217 206 202 202 204 213 221 222 219 221 232 249 268 284 293 292 288 285 275 270 270 269 263 248 237 229 227 235 254 265 266 261 258 261 264 266 267 263 256 248 240 225 207 197 208 226 229 225 226 233 240 245 249 248
210 205 206 206 204 205 207 210 209 210 211 212 216 216 217 218 218 218 222 227 228 227 221 216 217 216 214 216 219 223 221 215 213 215 217 217 218 221 222 224 232 248 264 274 282 287 283 277 273 271 270 266 266 268 258 247 241 241 248 262 275 275 269 264 263 265 268 267 265 263 257 256 253 247 242 241 242 240 241 243 245 247 253 260 253
218 213 210 209 207 207 207 208 209 211 212 214 218 219 220 221 221 224 226 225 225 224 220 219 223 223 219 217 217 221 222 218 220 223 223 225 227 227 224 226 238 252 267 277 278 276 274 271 268 271 272 263 261 267 267 261 255 255 260 268 278 280 273 269 267 269 271 266 264 267 264 262 264 267 269 270 266 259 257 259 264 264 263 267 260
221 217 213 212 211 210 210 211 212 212 213 215 216 219 220 221 224 228 227 221 221 221 221 224 227 225 220 215 213 218 221 220 225 230 227 226 229 232 232 231 237 248 263 272 270 265 264 267 267 268 268 263 260 263 267 267 260 260 266 268 271 276 275 274 274 276 274 269 263 264 270 272 272 275 280 282 279 274 272 272 274 273 268 271 270
221 218 217 218 215 213 213 214 215 215 215 215 216 219 222 225 226 226 224 220 221 222 222 224 226 226 220 215 212 215 220 220 225 234 235 232 230 233 234 233 237 247 257 261 262 260 254 256 261 262 262 262 263 262 267 271 266 265 266 265 265 270 276 274 273 274 276 275 270 268 272 276 277 279 284 287 286 283 281 281 280 279 277 277 278
218 219 218 219 218 215 214 213 216 217 216 216 216 219 222 224 220 217 219 222 225 224 222 222 222 222 217 212 213 217 220 222 227 235 239 237 232 230 231 233 239 247 253 253 253 255 251 252 256 256 255 257 262 267 270 271 269 266 264 263 262 268 275 274 269 269 272 275 275 274 273 275 278 281 283 285 286 286 286 286 284 284 285 284 284
215 218 217 217 217 215 213 212 214 216 215 214 214 216 216 215 211 210 214 219 223 224 222 218 213 212 209 208 215 219 220 222 228 233 238 240 236 232 232 235 236 236 241 247 249 250 250 255 258 258 256 253 257 265 268 270 273 273 272 268 263 263 269 271 268 267 270 272 274 275 275 275 276 278 282 284 285 286 288 289 287 287 288 286 285
210 214 214 215 216 215 214 213 213 212 212 212 211 211 210 207 205 207 211 214 218 220 218 214 206 203 205 210 215 218 218 220 226 232 241 244 239 237 237 236 232 228 233 241 248 250 252 257 259 260 260 258 259 264 267 271 277 282 284 283 276 266 261 264 267 269 272 272 272 272 274 276 276 277 279 282 283 285 288 290 291 290 289 287 285
201 206 211 213 215 216 215 215 213 210 211 214 213 213 213 210 208 209 211 214 217 217 214 213 209 205 207 212 216 218 218 221 227 234 243 242 236 239 241 236 231 230 229 231 241 247 251 256 256 256 259 261 263 267 270 271 274 286 296 300 297 282 266 261 263 267 272 273 272 270 271 273 276 278 279 279 281 283 287 291 291 290 289 287 286
200 204 209 210 212 213 215 216 214 212 214 217 218 218 216 213 211 212 214 217 222 220 216 217 215 213 214 215 218 221 223 227 232 239 243 237 233 236 240 240 241 242 234 228 238 245 248 252 256 256 255 258 264 270 271 268 265 281 308 304 303 315 288 271 270 269 267 271 272 270 269 270 273 278 279 279 281 282 286 289 288 287 288 289 287
197 201 205 207 209 211 213 214 213 215 219 220 222 222 217 213 212 215 218 220 225 224 221 222 219 219 220 221 224 225 226 231 235 240 243 239 237 239 242 249 254 255 249 239 241 246 249 253 258 258 254 253 258 267 271 270 265 263 286 290 265 347 293 305 317 294 273 271 273 271 268 268 270 274 277 279 283 284 285 284 282 284 286 288 288
195 200 205 206 207 209 213 214 213 216 221 221 221 221 219 216 213 213 214 215 218 219 220 224 224 225 227 230 232 232 234 237 239 243 247 249 252 252 251 256 260 261 259 249 246 251 256 257 260 258 255 255 258 265 269 272 269 255 243 233 280 340 242 321 336 315 301 295 284 277 270 268 270 273 275 278 279 279 280 280 280 281 284 286 286
200 203 209 210 209 210 212 213 214 217 221 221 219 222 222 222 220 218 217 218 219 221 223 226 230 232 236 239 240 240 242 244 247 250 252 256 258 254 251 254 256 256 254 251 252 259 261 261 263 261 260 261 261 263 264 269 273 264 254 246 246 248 270 339 347 318 322 318 310 304 286 278 277 273 274 276 276 277 277 279 282 281 281 282 281
200 200 205 209 210 213 212 210 212 216 218 218 218 222 224 227 230 230 231 232 233 236 239 240 241 242 244 246 248 247 247 249 251 252 253 259 260 253 247 249 251 250 251 254 259 265 266 265 267 267 267 266 260 259 264 271 273 271 269 259 254 254 263 289 293 284 325 317 311 314 308 302 292 280 279 278 278 279 278 278 282 284 279 275 275
193 196 200 205 210 213 214 212 213 216 215 214 218 222 225 229 232 234 235 236 240 246 250 252 252 252 254 256 257 256 255 254 254 255 254 256 259 254 248 249 250 249 250 256 263 269 271 269 269 270 270 268 264 263 267 272 271 272 277 273 268 264 262 263 258 253 249 298 305 305 303 308 305 295 288 287 287 284 280 278 277 280 277 271 273
187 193 198 203 210 213 216 214 212 216 216 215 219 222 226 229 230 231 231 232 237 242 247 250 250 252 256 258 264 266 265 262 259 260 260 259 260 257 254 255 254 254 254 258 262 266 270 271 270 271 272 271 270 269 270 270 271 275 278 275 275 275 272 265 255 246 227 238 286 295 299 308 310 304 300 299 297 288 283 281 274 272 269 267 271
191 195 197 201 209 212 214 212 210 212 214 217 221 223 224 225 224 223 223 224 226 230 235 237 240 247 252 254 261 267 271 272 267 264 263 261 260 257 254 253 254 257 259 260 262 263 267 272 274 274 274 275 274 272 271 271 271 275 276 273 270 269 274 270 253 243 233 237 248 268 285 294 298 301 306 308 302 298 293 285 275 270 267 267 270
198 199 199 200 206 212 213 213 210 208 209 215 220 221 221 221 219 217 217 218 219 224 229 229 235 246 253 253 257 264 268 272 273 270 268 265 263 262 259 256 256 257 258 259 261 262 266 272 273 272 271 271 274 274 272 270 269 269 270 270 268 266 264 262 261 261 246 236 243 270 285 293 292 292 305 312 304 307 308 295 284 276 271 269 266